This is the latest recevied weather packets stored in our database for station/object KJ4YLO. If no packets are shown the sender has not sent any weather packets the latest 10 day(s).
| Time | Temp. | Humidity | Pressure | Rain* | Wind** | Luminosity | Snow |
|---|---|---|---|---|---|---|---|
| 1777670823 | 18.89° C | 54% | 1013.5 hPa | 0 mm | - | 136 W/m² | - |
| 1777670519 | 18.89° C | 55% | 1013.5 hPa | 0 mm | - | 130 W/m² | - |
| 1777670216 | 18.89° C | 53% | 1013.5 hPa | 0 mm | - | 136 W/m² | - |
| 1777669913 | 18.89° C | 51% | 1013.5 hPa | 0 mm | - | 191 W/m² | - |
| 1777669610 | 18.89° C | 52% | 1013.5 hPa | 0 mm | - | 239 W/m² | - |
| 1777669307 | 19.44° C | 52% | 1013.8 hPa | 0 mm | - | 180 W/m² | - |
| 1777669003 | 19.44° C | 50% | 1013.5 hPa | 0 mm | - | 184 W/m² | - |
| 1777668701 | 18.89° C | 50% | 1013.5 hPa | 0 mm | - | 288 W/m² | - |
| 1777668397 | 20° C | 48% | 1013.8 hPa | 0 mm | - | 175 W/m² | - |
| 1777668093 | 20° C | 48% | 1013.5 hPa | 0 mm | - | 275 W/m² | - |
| 1777667790 | 20° C | 46% | 1013.8 hPa | 0 mm | - | 378 W/m² | - |
| 1777667487 | 19.44° C | 49% | 1013.5 hPa | 0 mm | - | 353 W/m² | - |
| 1777667185 | 19.44° C | 47% | 1013.8 hPa | 0 mm | - | 268 W/m² | - |
| 1777666881 | 18.89° C | 50% | 1013.8 hPa | 0 mm | - | 451 W/m² | - |
| 1777666579 | 18.89° C | 52% | 1013.8 hPa | 0 mm | - | 177 W/m² | - |
| 1777666275 | 18.89° C | 47% | 1014.1 hPa | 0 mm | - | 192 W/m² | - |
| 1777665972 | 18.89° C | 50% | 1013.8 hPa | 0 mm | - | 242 W/m² | - |
| 1777665670 | 18.89° C | 49% | 1014.1 hPa | 0 mm | - | 294 W/m² | - |
| 1777665367 | 18.89° C | 49% | 1014.1 hPa | 0 mm | - | 341 W/m² | - |
| 1777665062 | 18.89° C | 48% | 1014.1 hPa | 0 mm | - | 256 W/m² | - |
| 1777664758 | 18.89° C | 49% | 1014.5 hPa | 0 mm | - | 293 W/m² | - |
| 1777664454 | 18.33° C | 50% | 1014.5 hPa | 0 mm | - | 303 W/m² | - |
| 1777664151 | 18.33° C | 50% | 1014.5 hPa | 0 mm | - | 307 W/m² | - |
| 1777663850 | 18.33° C | 48% | 1014.5 hPa | 0 mm | - | 285 W/m² | - |
| 1777663546 | 18.89° C | 48% | 1014.5 hPa | 0 mm | - | 258 W/m² | - |
* Rain latest hour (hover to see other rain measurements)
** Current wind speed in m/s (hover to see current wind gust speed)